Location: Unspecified
(17.6330°N, 0.0000°E)
Time: 23:44:45
(UTC+00:00)

Explorer 11/Cluster Stage 4 - Visible Passes

Search period start: 20 June 2019 00:00
Search period end: 30 June 2019 00:00
Orbit: 467 x 1260 km, 28.8° (Epoch: 19 June)

Date Brightness Start Highest point End Pass type
(mag) Time Alt. Az. Time Alt. Az. Time Alt. Az.
20 Jun 7.7 18:50:06 10° NW 18:55:28 44° NNE 19:02:05 10° E visible
20 Jun 7.1 20:38:11 10° WNW 20:44:38 74° SSW 20:45:53 61° SSE visible
20 Jun 9.7 22:28:00 10° W 22:28:00 10° W 22:28:00 10° W visible
21 Jun 7.2 20:27:45 10° WNW 20:33:57 63° SSW 20:35:39 49° SSE visible
22 Jun 7.3 20:17:24 10° WNW 20:23:17 53° SSW 20:25:27 39° SSE visible
23 Jun 7.6 20:07:06 10° W 20:12:39 44° SSW 20:15:19 31° SSE visible
24 Jun 7.8 19:56:53 10° W 20:02:02 36° SSW 20:05:13 23° SSE visible
25 Jun 8.0 19:46:46 10° W 19:51:27 29° SSW 19:55:09 17° SSE visible
26 Jun 8.3 19:36:46 10° WSW 19:40:54 23° SSW 19:45:09 12° SSE visible
27 Jun 8.5 19:26:57 10° WSW 19:30:23 17° SSW 19:34:17 10° SSE visible
28 Jun 8.7 19:17:32 10° SW 19:19:53 13° SSW 19:22:27 10° S visible
